EW5822 Weather Reports


Display with metric or nautical units.
time (UTC)temp
F
wind
direction
speed
MPH
gust
MPH
rain 1hr
in
rain 24hr
in
rain mn
in
humidity
%
barometer
mb
20260508012703 72 229 2.0 3.0 0.00 0.00 0.00 39 1006.8
20260508011803 73 253 1.0 3.0 0.00 0.00 0.00 38 1006.7
20260508011117 74 279 1.0 3.0 0.00 0.00 0.00 35 1006.6
20260508010214 74 281 2.0 4.0 0.00 0.00 0.00 34 1006.6
20260508005615 74 281 2.0 4.0 0.00 0.00 0.00 34 1006.5
20260508004713 75 281 3.0 6.0 0.00 0.00 0.00 35 1006.5
20260508003603 75 276 3.0 7.0 0.00 0.00 0.00 35 1006.4
20260508002703 76 277 3.0 6.0 0.00 0.00 0.00 34 1006.4
20260508002015 77 285 3.0 7.0 0.00 0.00 0.00 32 1006.5
20260508000903 77 276 5.0 10.0 0.00 0.00 0.00 33 1006.5
20260508000215 78 259 3.0 8.0 0.00 0.00 0.00 32 1006.4
20260507235403 78 261 4.0 8.0 0.00 0.00 0.00 32 1006.5
20260507234503 78 241 3.0 7.0 0.00 0.00 0.00 32 1006.6
20260507233816 78 248 5.0 11.0 0.00 0.00 0.00 30 1006.6
20260507232913 79 249 8.0 16.0 0.00 0.00 0.00 30 1006.6
20260507231803 79 255 6.0 12.0 0.00 0.00 0.00 30 1006.7
20260507230903 79 222 6.0 12.0 0.00 0.00 0.00 31 1006.8
20260507230215 78 217 8.0 13.0 0.00 0.00 0.00 30 1006.8
20260507225617 78 225 8.0 13.0 0.00 0.00 0.00 30 1006.8
20260507224714 78 220 7.0 13.0 0.00 0.00 0.00 31 1006.9
20260507223603 78 226 8.0 13.0 0.00 0.00 0.00 32 1006.9
20260507222914 78 245 10.0 18.0 0.00 0.00 0.00 31 1007.0
20260507222016 78 228 7.0 12.0 0.00 0.00 0.00 32 1007.0
20260507221113 79 248 6.0 12.0 0.00 0.00 0.00 30 1007.2
20260507220216 78 234 7.0 15.0 0.00 0.00 0.00 28 1007.3
20260507215617 79 228 8.0 17.0 0.00 0.00 0.00 30 1007.3
20260507214503 78 223 10.0 20.0 0.00 0.00 0.00 29 1007.4
20260507213817 78 214 11.0 18.0 0.00 0.00 0.00 30 1007.5
20260507212914 78 231 7.0 15.0 0.00 0.00 0.00 31 1007.5
20260507212017 78 212 12.0 17.0 0.00 0.00 0.00 30 1007.6
20260507211114 77 218 11.0 19.0 0.00 0.00 0.00 31 1007.7
20260507210216 77 214 12.0 22.0 0.00 0.00 0.00 31 1007.7
20260507205404 77 209 13.0 19.0 0.00 0.00 0.00 29 1008.0
20260507204503 77 222 10.0 18.0 0.00 0.00 0.00 34 1008.0
20260507203813 77 208 12.0 18.0 0.00 0.00 0.00 31 1008.2
20260507202915 77 195 14.0 22.0 0.00 0.00 0.00 32 1008.4
20260507202012 76 206 14.0 23.0 0.00 0.00 0.00 31 1008.6
20260507200903 76 195 16.0 27.0 0.00 0.00 0.00 31 1008.7
20260507200217 76 188 16.0 27.0 0.00 0.00 0.00 31 1008.7
20260507195403 76 183 19.0 28.0 0.00 0.00 0.00 34 1008.8
20260507194716 76 182 20.0 34.0 0.00 0.00 0.00 32 1008.9
20260507193813 76 186 18.0 32.0 0.00 0.00 0.00 31 1009.0
20260507192916 75 178 20.0 32.0 0.00 0.00 0.00 32 1009.2
20260507192013 75 187 18.0 32.0 0.00 0.00 0.00 32 1009.3
20260507191115 75 180 18.0 29.0 0.00 0.00 0.00 33 1009.5
20260507190213 74 184 20.0 34.0 0.00 0.00 0.00 33 1009.5
20260507185403 74 177 19.0 29.0 0.00 0.00 0.00 36 1009.6
20260507184504 73 177 20.0 30.0 0.00 0.00 0.00 35 1009.7
20260507183814 73 185 18.0 26.0 0.00 0.00 0.00 34 1009.9
20260507182703 73 185 19.0 34.0 0.00 0.00 0.00 35 1010.1
20260507181803 71 187 19.0 36.0 0.00 0.00 0.00 39 1010.2
20260507181116 71 183 19.0 36.0 0.00 0.00 0.00 40 1010.2
20260507180213 71 183 17.0 33.0 0.00 0.00 0.00 39 1010.4
20260507175403 70 185 19.0 29.0 0.00 0.00 0.00 40 1010.6
20260507174503 69 181 19.0 32.0 0.00 0.00 0.00 41 1010.7
20260507173817 69 178 20.0 33.0 0.00 0.00 0.00 42 1010.9
20260507172917 68 181 20.0 29.0 0.00 0.00 0.00 41 1011.1
20260507172014 68 185 20.0 34.0 0.00 0.00 0.00 42 1011.3
20260507171117 67 191 19.0 28.0 0.00 0.00 0.00 44 1011.6
20260507170214 67 183 20.0 27.0 0.00 0.00 0.00 45 1011.7
20260507165615 67 182 21.0 27.0 0.00 0.00 0.00 45 1011.8
20260507164713 66 180 20.0 30.0 0.00 0.00 0.00 43 1011.9
20260507163603 65 179 20.0 32.0 0.00 0.00 0.00 46 1012.0
20260507162912 65 182 18.0 28.0 0.00 0.00 0.00 47 1012.1
20260507162015 65 184 17.0 30.0 0.00 0.00 0.00 48 1012.2
20260507161117 63 203 18.0 25.0 0.00 0.00 0.00 49 1012.3
20260507160003 63 192 16.0 26.0 0.00 0.00 0.00 49 1012.4
20260507155616 63 187 17.0 26.0 0.00 0.00 0.00 50 1012.3
20260507154713 62 197 17.0 29.0 0.00 0.00 0.00 53 1012.4
20260507153816 61 184 18.0 27.0 0.00 0.00 0.00 54 1012.6
20260507152703 61 197 16.0 22.0 0.00 0.00 0.00 55 1012.9
20260507152015 60 189 16.0 23.0 0.00 0.00 0.00 56 1013.0
20260507151113 59 195 14.0 22.0 0.00 0.00 0.00 58 1013.1
20260507150215 59 196 12.0 20.0 0.00 0.00 0.00 60 1013.1
20260507145617 59 196 12.0 18.0 0.00 0.00 0.00 59 1013.3
20260507144714 57 205 13.0 20.0 0.00 0.00 0.00 62 1013.3
20260507143816 56 194 13.0 20.0 0.00 0.00 0.00 65 1013.4
20260507142914 56 199 12.0 20.0 0.00 0.00 0.00 67 1013.5
20260507141803 54 201 12.0 17.0 0.00 0.00 0.00 69 1013.6
20260507140903 53 199 13.0 17.0 0.00 0.00 0.00 70 1013.8
20260507140216 53 197 13.0 17.0 0.00 0.00 0.00 71 1013.9
20260507135404 52 199 13.0 19.0 0.00 0.00 0.00 73 1014.0
20260507134503 51 197 13.0 18.0 0.00 0.00 0.00 74 1014.1
20260507133603 50 199 13.0 19.0 0.00 0.00 0.00 76 1014.0
20260507132914 50 197 13.0 19.0 0.00 0.00 0.00 77 1014.1
20260507131803 49 193 12.0 18.0 0.00 0.00 0.00 78 1014.1
20260507131114 49 198 12.0 18.0 0.00 0.00 0.00 80 1014.2
20260507130216 48 199 12.0 17.0 0.00 0.00 0.00 81 1014.1
20260507125613 47 195 11.0 17.0 0.00 0.00 0.00 83 1014.1
20260507124503 46 193 9.0 12.0 0.00 0.00 0.00 84 1014.0
20260507123813 46 192 9.0 13.0 0.00 0.00 0.00 85 1014.1
20260507122915 45 194 8.0 11.0 0.00 0.00 0.00 87 1014.0
20260507121803 44 193 8.0 11.0 0.00 0.00 0.00 87 1014.1
20260507120903 44 192 8.0 11.0 0.00 0.00 0.00 88 1014.1
20260507120003 43 186 9.0 12.0 0.00 0.00 0.00 88 1014.1
20260507115403 43 177 7.0 12.0 0.00 0.00 0.00 88 1014.1
20260507114716 43 181 7.0 10.0 0.00 0.00 0.00 88 1014.0
20260507113603 42 173 7.0 10.0 0.00 0.00 0.00 88 1014.2
20260507112704 42 162 7.0 9.0 0.00 0.00 0.00 87 1014.3
20260507111803 42 172 6.0 9.0 0.00 0.00 0.00 86 1014.2
20260507110904 43 183 5.0 7.0 0.00 0.00 0.00 86 1014.4
20260507110003 43 200 6.0 12.0 0.00 0.00 0.00 86 1014.3
20260507105614 43 203 5.0 12.0 0.00 0.00 0.00 88 1014.3
20260507104717 43 203 4.0 6.0 0.00 0.00 0.00 87 1014.4
20260507103603 43 199 5.0 7.0 0.00 0.00 0.00 87 1014.5
20260507102916 43 198 5.0 9.0 0.00 0.00 0.00 87 1014.5
20260507101803 43 189 4.0 7.0 0.00 0.00 0.00 86 1014.7
20260507101116 43 191 4.0 7.0 0.00 0.00 0.00 85 1014.7
20260507100003 44 204 2.0 4.0 0.00 0.00 0.00 85 1014.8
20260507095403 44 205 2.0 3.0 0.00 0.00 0.00 85 1014.9
20260507094712 44 205 3.0 5.0 0.00 0.00 0.00 85 1014.8
20260507093603 44 203 4.0 6.0 0.00 0.00 0.00 84 1014.8
20260507092917 44 202 5.0 7.0 0.00 0.00 0.00 83 1014.8
20260507092014 44 197 4.0 6.0 0.00 0.00 0.00 83 1014.9
20260507091117 44 196 5.0 8.0 0.00 0.00 0.00 83 1014.9
20260507090004 45 200 5.0 7.0 0.00 0.00 0.00 82 1015.0
20260507085403 45 208 4.0 7.0 0.00 0.00 0.00 81 1014.9
20260507084713 45 208 5.0 9.0 0.00 0.00 0.00 81 1015.0
20260507083815 46 212 5.0 9.0 0.00 0.00 0.00 81 1015.1
20260507082912 46 214 5.0 9.0 0.00 0.00 0.00 81 1015.2
20260507082015 46 216 4.0 8.0 0.00 0.00 0.00 80 1015.2
20260507081112 47 224 4.0 7.0 0.00 0.00 0.00 80 1015.3
20260507080215 47 225 5.0 10.0 0.00 0.00 0.00 80 1015.4
20260507075616 47 223 5.0 10.0 0.00 0.00 0.00 80 1015.5
20260507074503 47 220 5.0 10.0 0.00 0.00 0.00 79 1015.5
20260507073816 47 215 5.0 10.0 0.00 0.00 0.00 79 1015.6
20260507072703 47 215 6.0 10.0 0.00 0.00 0.00 79 1015.8
20260507072015 47 211 6.0 10.0 0.00 0.00 0.00 79 1015.8
20260507070903 46 198 5.0 7.0 0.00 0.00 0.00 79 1016.0
20260507070007 46 202 5.0 9.0 0.00 0.00 0.00 78 1016.1
20260507065617 46 209 5.0 9.0 0.00 0.00 0.00 78 1016.1
20260507064714 46 214 5.0 9.0 0.00 0.00 0.00 79 1016.1
20260507063816 46 207 6.0 9.0 0.00 0.00 0.00 77 1016.2
20260507062914 46 205 5.0 9.0 0.00 0.00 0.00 76 1016.2
20260507061803 47 205 4.0 6.0 0.00 0.00 0.00 75 1016.3
20260507060903 47 205 4.0 6.0 0.00 0.00 0.00 74 1016.4
20260507060004 47 205 4.0 5.0 0.00 0.00 0.00 74 1016.4
20260507055612 48 205 4.0 6.0 0.00 0.00 0.00 73 1016.4
20260507054503 48 208 5.0 7.0 0.00 0.00 0.00 72 1016.5
20260507053603 49 213 4.0 7.0 0.00 0.00 0.00 70 1016.4
20260507052703 50 216 4.0 7.0 0.00 0.00 0.00 69 1016.5
20260507051803 50 219 5.0 8.0 0.00 0.00 0.00 69 1016.5
20260507051114 51 223 4.0 8.0 0.00 0.00 0.00 68 1016.6
20260507050003 51 215 5.0 11.0 0.00 0.00 0.00 68 1016.6
20260507045613 51 214 5.0 10.0 0.00 0.00 0.00 68 1016.6
20260507044715 50 213 5.0 8.0 0.00 0.00 0.00 68 1016.6
20260507043818 50 205 6.0 9.0 0.00 0.00 0.00 67 1016.6
20260507042915 51 200 6.0 9.0 0.00 0.00 0.00 66 1016.5
20260507042012 52 197 6.0 8.0 0.00 0.00 0.00 64 1016.5
20260507041115 53 213 6.0 9.0 0.00 0.00 0.00 62 1016.5
20260507040003 53 216 6.0 11.0 0.00 0.00 0.00 61 1016.5
20260507035614 53 216 6.0 10.0 0.00 0.00 0.00 61 1016.5
20260507034716 54 216 6.0 12.0 0.00 0.00 0.00 60 1016.6
20260507033813 54 215 6.0 12.0 0.00 0.00 0.00 60 1016.6
20260507032703 54 218 5.0 9.0 0.00 0.01 0.00 60 1016.6
20260507032013 54 216 5.0 9.0 0.00 0.01 0.00 60 1016.5
20260507031115 53 212 6.0 9.0 0.00 0.01 0.00 60 1016.5
20260507030003 53 206 6.0 8.0 0.00 0.01 0.00 61 1016.5
20260507025614 53 205 6.0 9.0 0.00 0.01 0.00 61 1016.5
20260507024717 53 201 6.0 9.0 0.00 0.01 0.00 60 1016.5
20260507023603 53 192 6.0 8.0 0.00 0.01 0.00 58 1016.5
20260507022703 53 192 5.0 7.0 0.00 0.01 0.00 56 1016.4
20260507021803 54 192 6.0 7.0 0.00 0.01 0.00 55 1016.2
20260507020903 53 196 5.0 8.0 0.00 0.01 0.00 55 1016.1
20260507020213 53 199 6.0 8.0 0.00 0.01 0.00 54 1016.0
20260507015403 54 197 5.0 7.0 0.00 0.01 0.00 53 1015.8
20260507014503 53 202 5.0 8.0 0.00 0.01 0.00 53 1015.8
20260507013603 54 206 5.0 6.0 0.00 0.01 0.00 52 1015.7